Temperature
18 18 18 18 18 18 17 17 17 18 18 17 17 17 17 17 17 17 17 17 17 17 18 18 18 18 18 18 18 18 18 18 18 18 18 18 18 18 17 17 17 17 18
18 18 18 18 18 18 17 17 17 18 17 17 17 17 17 17 17 17 17 17 17 17 17 17 18 18 18 18 18 18 17 17 17 17 17 17 17 17 17 17 17 17 17
17 17 18 18 18 17 17 17 18 18 17 17 17 17 17 17 17 17 17 17 17 17 17 17 17 17 17 18 18 17 17 17 17 17 17 17 17 17 17 17 17 17 17
17 17 18 18 18 17 17 17 17 17 17 17 17 17 17 17 17 17 17 17 17 17 17 17 17 17 17 17 17 17 17 17 17 17 17 17 17 17 17 17 17 17 17
17 17 18 18 18 17 17 17 17 17 17 17 17 17 17 17 17 17 17 17 17 17 17 17 17 17 17 17 17 17 17 17 17 17 17 17 17 17 17 17 17 17 17
17 17 18 18 18 17 17 17 17 17 17 17 17 17 17 17 17 17 17 17 17 17 17 17 17 17 17 17 17 17 17 17 17 17 16 17 17 17 17 17 17 17 17
17 17 17 17 17 17 17 17 17 17 17 17 17 17 17 17 17 17 17 17 17 17 17 17 17 17 17 17 17 17 17 17 16 16 16 16 16 16 16 16 16 16 16
17 17 17 17 17 17 17 17 17 17 17 17 17 17 17 17 17 17 17 17 17 17 17 17 17 17 17 17 17 17 17 16 16 16 16 16 16 16 16 16 16 16 16
17 17 17 17 17 17 17 17 17 17 17 16 16 16 16 16 16 16 16 17 17 16 16 17 17 17 17 17 17 17 16 16 16 16 16 16 16 16 16 16 16 16 16
17 17 17 17 17 17 17 17 16 16 16 16 16 16 16 16 16 16 16 16 16 16 16 16 16 16 16 16 16 16 16 16 16 16 16 16 16 16 16 16 16 16 16
17 17 17 17 17 17 17 16 16 16 16 16 16 16 16 16 16 16 16 16 16 16 16 16 16 16 16 16 16 16 16 16 16 16 16 16 16 16 16 16 16 16 16
18 17 17 17 17 16 16 16 16 16 16 16 16 16 16 16 16 16 16 16 16 16 16 16 16 16 16 16 16 16 16 16 16 16 16 16 16 16 16 16 16 16 16
17 17 17 17 17 17 16 16 16 16 16 16 16 16 16 16 16 15 15 16 16 16 16 16 16 16 16 16 16 16 16 16 15 15 15 15 15 15 15 16 15 15 15
18 17 17 17 17 17 17 16 16 16 16 16 16 16 16 16 15 15 15 15 15 15 15 15 16 16 16 16 16 16 16 15 15 15 15 15 15 15 15 15 15 15 15
18 17 17 17 17 17 17 16 16 16 16 16 16 16 16 16 15 15 15 15 15 15 15 15 15 15 15 16 15 15 15 15 15 15 15 15 15 15 15 15 15 15 15
18 17 17 17 17 17 16 16 16 16 16 16 15 15 15 15 15 15 15 15 15 15 15 15 15 15 15 15 15 15 15 15 15 15 15 14 14 15 15 15 15 15 14
18 17 17 17 17 17 16 16 16 16 16 15 15 15 15 15 15 15 15 15 15 15 15 15 15 15 15 15 15 15 15 15 15 15 14 14 14 14 14 14 14 14 14
18 18 17 17 17 17 16 16 16 16 15 15 15 15 15 15 15 15 15 15 15 15 15 15 15 15 15 15 15 15 15 15 15 14 14 14 14 14 14 14 14 14 14
18 18 17 17 17 17 16 16 16 15 15 15 15 15 15 15 15 15 15 15 14 14 15 15 14 15 15 14 14 15 15 15 15 14 14 14 14 14 14 14 14 14 14
18 18 17 17 17 16 16 16 16 15 15 15 15 15 15 15 15 15 15 14 14 14 14 14 14 14 14 14 14 14 15 14 14 14 14 14 14 14 14 14 14 13 14
18 18 17 17 17 16 16 16 15 15 15 15 15 15 15 15 15 14 14 14 14 14 14 14 14 14 14 14 14 14 14 14 14 14 14 14 14 13 13 13 13 13 13
18 18 17 17 17 16 16 16 15 15 15 15 15 15 15 15 15 14 14 14 14 14 14 14 14 14 14 14 14 14 14 14 14 14 14 14 14 13 13 13 13 13 13
17 17 17 17 17 16 16 16 15 15 15 15 15 15 15 14 14 14 14 14 14 14 14 13 13 13 14 14 14 14 14 14 13 14 14 14 13 13 13 13 13 13 13
17 17 17 17 16 16 16 16 15 15 15 15 15 14 14 14 14 14 14 14 14 13 13 13 13 13 13 13 13 13 13 14 13 13 13 13 13 13 13 13 13 13 13
17 17 17 17 16 16 16 16 15 15 15 15 15 14 14 14 14 14 14 14 13 13 13 13 13 13 13 13 13 13 13 13 13 13 13 13 13 13 13 13 13 13 13
17 17 16 16 16 16 16 15 15 15 15 15 15 14 14 14 14 14 14 13 13 13 13 13 13 13 13 13 13 13 13 13 13 13 13 13 13 13 13 13 13 13 12
Wind_Speed
7 10 10 10 10 10 11 11 11 11 11 11 12 12 12 12 12 12 12 12 12 12 12 12 12 12 12 11 11 11 10 9 8 8 8 9 9 9 8 8 8 7 8
9 11 11 11 10 11 11 11 11 11 11 11 11 12 12 12 12 12 12 12 12 12 11 12 12 12 12 12 11 10 9 7 7 7 8 9 10 10 10 9 9 8 9
10 11 11 10 11 11 11 12 12 12 12 12 12 12 12 12 12 12 12 12 12 12 11 12 12 12 12 11 10 9 8 7 7 7 8 7 9 11 12 12 11 10 9
10 12 10 10 10 11 11 12 12 12 12 12 12 12 12 12 12 13 13 13 13 13 12 12 12 12 11 10 9 8 8 8 9 9 9 9 10 12 12 12 11 10 9
11 13 11 10 10 11 11 11 12 12 12 12 12 12 12 12 12 13 13 13 13 13 13 12 12 12 11 10 9 8 8 9 10 10 10 11 10 11 12 11 10 10 10
10 13 11 10 10 10 11 11 12 12 12 12 12 12 12 12 13 13 13 13 13 13 12 12 13 12 11 9 9 8 8 8 9 11 11 11 10 10 11 11 10 10 9
9 12 12 11 10 11 11 11 11 12 12 12 12 11 11 12 12 12 13 13 13 13 13 12 12 12 11 9 8 8 8 8 8 9 10 9 10 11 11 10 10 9 8
9 11 12 11 11 11 11 11 11 11 11 11 11 10 10 11 11 11 12 12 12 12 12 12 11 10 10 9 8 7 8 8 8 10 10 10 11 11 11 10 10 10 9
8 9 9 10 11 11 11 11 11 11 10 10 9 9 9 9 10 11 11 11 11 11 11 11 10 9 9 8 7 7 7 8 7 7 10 10 11 11 10 10 10 10 10
7 7 6 7 10 10 10 10 10 9 8 8 7 7 7 7 9 10 10 10 10 10 10 9 9 8 7 6 6 6 6 6 7 8 9 9 11 11 10 10 10 10 10
6 5 5 5 7 8 8 9 8 8 6 6 5 5 5 6 6 7 9 9 9 9 8 7 6 5 5 4 4 5 6 5 8 9 10 11 11 11 10 10 10 10 10
5 5 4 5 5 6 6 7 6 6 4 4 4 4 3 5 6 8 8 7 7 6 6 4 3 3 2 1 2 3 4 8 9 9 10 11 11 10 10 10 10 11 11
6 5 5 5 5 5 4 5 3 4 3 3 3 5 4 5 6 6 4 4 4 4 3 2 2 2 2 3 3 5 7 8 8 8 9 10 9 9 10 10 10 10 10
6 5 5 4 4 5 5 3 3 3 2 3 3 5 4 3 2 3 3 3 2 3 4 4 3 4 6 6 6 6 7 7 8 8 9 10 10 10 10 10 10 10 10
6 6 5 4 5 4 4 2 3 3 2 4 4 5 5 3 1 2 3 3 3 4 4 3 4 5 6 6 7 7 6 7 7 8 8 9 9 9 9 9 9 9 9
6 6 5 5 4 4 3 3 3 3 4 5 4 5 5 4 2 3 3 3 3 4 3 3 3 4 4 5 5 6 5 6 6 6 7 7 8 8 8 8 7 7 7
6 6 5 4 4 4 4 3 3 3 4 3 4 4 4 4 4 3 2 2 3 4 4 3 4 3 3 4 4 4 4 5 5 5 5 6 6 7 7 8 7 7 7
7 6 5 3 4 4 4 3 3 3 4 3 4 4 3 3 5 4 2 2 3 4 3 2 3 3 3 3 3 3 3 3 3 4 4 5 6 5 6 6 6 6 6
7 7 6 4 4 4 4 3 3 3 3 4 4 3 3 4 5 5 2 2 4 3 2 2 3 2 2 2 2 1 1 1 2 3 3 4 5 5 5 4 5 5 6
6 6 7 5 4 4 3 3 2 2 2 3 3 3 3 4 5 5 2 2 3 2 2 2 3 3 2 2 2 2 1 0 1 2 2 3 4 4 5 4 4 3 5
5 5 6 6 5 4 3 2 2 1 1 2 2 3 3 4 4 4 2 2 2 2 1 2 2 2 1 1 2 2 2 1 2 2 1 2 2 3 3 4 4 4 4
4 5 6 6 5 5 4 3 2 2 2 2 1 2 2 2 2 3 2 1 1 2 2 2 1 1 1 1 1 1 2 2 3 1 1 1 2 2 2 3 4 4 5
3 3 3 4 5 5 4 3 2 2 1 2 1 1 1 3 3 3 2 1 1 1 1 1 1 1 1 2 1 1 0 1 2 2 1 1 1 2 2 2 3 3 5
3 3 3 4 5 4 4 3 3 3 2 2 2 2 1 2 2 2 1 1 1 1 1 0 1 1 1 2 2 2 1 0 1 1 2 1 1 1 1 1 2 3 4
3 3 3 4 4 4 4 3 3 2 2 2 2 3 2 1 1 1 1 1 1 1 1 1 1 1 1 1 1 2 2 2 1 0 2 2 2 1 0 1 1 2 2
4 2 2 3 3 4 4 4 3 3 3 2 2 2 2 1 1 1 1 0 1 1 1 1 1 1 1 2 2 1 1 1 2 1 1 2 2 2 1 1 0 1 2
Wind_Direction
85 84 70 65 65 67 65 65 65 64 63 62 63 63 62 63 64 63 61 63 66 68 70 69 68 68 66 67 68 69 70 75 75 71 70 64 59 60 68 69 70 66 70
97 90 75 68 68 67 67 68 67 65 64 64 64 66 66 68 66 63 63 63 67 71 73 72 70 69 67 68 67 65 65 67 69 68 70 68 64 60 62 70 72 70 67
98 93 79 70 69 68 71 71 68 67 66 67 70 70 69 69 67 64 63 64 66 69 73 74 71 70 71 69 66 61 56 53 52 59 64 71 66 62 64 73 74 69 65
95 91 82 75 72 71 74 74 72 70 69 71 72 72 71 70 68 65 63 65 67 68 70 72 72 71 68 65 59 53 47 41 48 56 63 65 63 63 62 62 64 65 63
92 91 86 81 77 75 76 77 76 73 72 73 73 74 73 71 70 68 65 65 67 68 69 70 70 67 66 62 55 46 41 38 54 59 65 65 61 65 65 61 59 62 62
101 99 94 88 85 83 81 81 78 76 74 75 76 75 74 71 69 69 67 67 66 66 67 69 69 65 64 58 49 39 32 35 59 67 65 63 62 64 64 62 60 60 58
107 109 108 100 94 91 88 85 82 79 77 75 76 76 76 73 69 67 68 67 66 64 63 65 65 63 61 55 46 35 34 35 71 76 74 67 66 65 64 60 59 60 57
107 114 118 115 107 101 96 91 87 85 82 79 75 76 78 75 73 71 70 68 66 65 64 63 61 60 59 55 45 37 33 32 66 78 78 73 70 67 66 64 61 59 56
101 106 119 130 122 112 107 101 96 92 88 86 82 81 83 82 79 75 74 70 68 66 66 65 63 58 54 52 46 40 34 26 49 67 74 72 71 69 67 63 60 59 57
100 103 109 120 124 126 121 112 108 101 96 95 92 85 90 92 89 84 79 72 69 68 68 67 64 59 53 49 44 34 21 24 61 68 73 73 71 70 66 63 60 59 58
101 101 106 103 110 114 115 112 118 111 101 103 102 91 100 93 94 93 87 85 77 72 70 69 66 63 57 45 38 26 17 55 72 70 71 76 74 71 65 61 60 61 59
106 99 98 103 99 103 104 112 117 112 117 109 114 112 95 98 93 90 92 86 78 73 67 61 53 40 44 46 31 30 43 63 70 75 76 77 72 69 64 59 59 61 58
108 96 89 92 90 94 97 107 100 103 113 99 92 99 86 82 85 92 93 85 71 70 58 36 4 352 29 60 53 59 56 62 68 69 75 77 71 67 64 61 60 59 57
109 102 88 89 86 86 87 89 89 80 69 70 71 78 74 73 74 91 93 87 71 52 39 23 20 28 34 43 54 57 60 63 69 75 74 76 72 68 64 62 60 58 57
121 113 97 88 89 84 85 86 91 85 60 64 51 66 77 77 55 73 77 69 57 49 46 30 27 35 28 32 39 47 53 65 66 78 82 76 74 69 62 59 55 53 53
130 118 106 94 87 86 88 76 72 71 72 69 57 57 68 76 68 63 61 58 55 51 50 45 36 50 33 38 34 40 43 60 73 89 98 84 76 69 61 58 56 56 53
130 123 114 111 103 95 92 80 76 70 79 74 67 56 58 72 75 75 66 53 49 45 43 51 37 49 42 39 29 33 39 56 68 79 97 99 83 68 64 60 56 56 54
130 127 120 122 114 108 102 88 80 69 71 73 71 65 59 65 74 77 70 54 58 48 43 42 41 35 34 33 21 16 30 60 66 76 90 106 106 89 73 69 62 59 53
138 136 135 131 124 112 104 98 88 83 81 76 63 53 49 57 68 74 65 60 61 56 35 29 38 34 24 22 5 7 32 41 50 61 61 86 99 108 107 93 78 64 52
138 142 141 138 138 124 117 108 95 76 72 84 76 58 51 59 64 73 73 62 67 59 28 33 36 20 17 357 2 10 352 73 76 64 48 63 79 95 113 114 120 86 65
148 148 141 145 149 134 127 122 125 126 109 87 78 63 61 63 63 72 53 61 69 69 54 36 48 14 343 355 26 350 338 31 83 82 66 56 67 72 97 114 126 124 107
155 151 153 152 151 139 138 147 147 143 143 128 92 64 70 77 75 78 67 49 76 65 40 20 36 11 332 353 15 5 357 349 360 53 65 47 42 56 59 69 84 107 122
143 151 155 151 141 139 135 132 134 134 134 116 131 141 72 65 62 65 66 60 72 79 64 13 42 21 311 315 11 52 79 270 308 314 15 59 41 35 22 44 57 76 101
146 150 163 158 147 142 141 148 156 148 154 164 165 155 138 95 84 74 65 87 88 67 86 345 31 341 355 326 329 335 323 143 157 309 321 349 46 48 356 22 51 61 83
118 147 159 150 142 139 140 166 176 161 173 165 148 144 162 162 113 82 54 73 59 39 50 23 24 1 353 344 328 325 328 332 299 164 296 311 332 327 333 45 87 85 97
88 88 137 148 145 150 163 174 170 180 174 157 154 162 171 155 162 127 78 55 80 46 47 24 4 25 340 344 338 338 339 341 328 331 294 290 296 291 300 355 120 150 154
Height
1520 1519 1519 1518 1517 1517 1517 1516 1516 1516 1516 1515 1515 1515 1515 1515 1515 1515 1514 1514 1514 1514 1514 1513 1513 1514 1514 1514 1514 1515 1516 1516 1516 1517 1517 1516 1515 1514 1514 1515 1517 1518 1519
1521 1520 1519 1519 1518 1518 1518 1518 1517 1517 1516 1516 1516 1516 1516 1516 1516 1516 1516 1516 1516 1515 1515 1515 1515 1515 1515 1516 1516 1516 1517 1517 1517 1517 1517 1517 1517 1515 1513 1513 1516 1518 1519
1521 1521 1520 1520 1519 1519 1519 1519 1518 1518 1517 1517 1517 1517 1517 1517 1517 1517 1517 1517 1517 1517 1517 1517 1517 1517 1517 1517 1518 1518 1518 1519 1519 1519 1518 1518 1518 1516 1513 1514 1517 1518 1519
1522 1521 1521 1521 1521 1520 1520 1520 1520 1519 1519 1518 1518 1518 1518 1518 1518 1519 1519 1519 1518 1518 1518 1518 1518 1519 1519 1519 1519 1520 1520 1520 1520 1520 1520 1519 1519 1518 1517 1517 1518 1519 1520
1523 1522 1522 1522 1522 1522 1521 1521 1521 1521 1520 1520 1520 1520 1520 1520 1520 1520 1520 1520 1520 1520 1520 1520 1520 1520 1520 1520 1521 1521 1521 1521 1521 1521 1520 1520 1520 1519 1519 1519 1519 1520 1520
1524 1523 1523 1523 1523 1523 1523 1523 1522 1522 1522 1522 1522 1522 1522 1522 1522 1522 1521 1521 1521 1521 1521 1522 1522 1522 1522 1522 1522 1522 1522 1522 1522 1522 1522 1521 1521 1521 1520 1520 1520 1521 1521
1525 1524 1524 1524 1524 1524 1524 1524 1524 1524 1524 1524 1524 1524 1524 1524 1524 1523 1523 1523 1523 1523 1523 1523 1523 1523 1523 1523 1523 1523 1523 1523 1523 1523 1523 1522 1522 1522 1521 1521 1521 1521 1521
1526 1526 1526 1526 1526 1526 1525 1525 1526 1526 1525 1526 1526 1526 1526 1526 1525 1525 1525 1525 1524 1524 1525 1525 1525 1525 1525 1525 1525 1525 1524 1524 1525 1524 1524 1524 1523 1523 1523 1523 1522 1522 1522
1527 1527 1527 1527 1527 1527 1527 1527 1527 1527 1527 1527 1527 1527 1527 1527 1527 1527 1527 1527 1526 1526 1526 1526 1526 1526 1526 1526 1526 1526 1526 1525 1525 1525 1525 1525 1525 1524 1524 1524 1523 1523 1522
1528 1528 1529 1529 1529 1529 1528 1529 1529 1529 1529 1529 1529 1529 1529 1529 1529 1529 1529 1529 1528 1528 1528 1528 1528 1528 1528 1528 1527 1527 1527 1526 1526 1526 1526 1526 1525 1525 1525 1524 1524 1523 1523
1529 1530 1530 1530 1530 1530 1530 1530 1530 1530 1530 1531 1531 1531 1531 1531 1531 1531 1531 1531 1530 1530 1530 1530 1530 1530 1529 1529 1529 1529 1528 1527 1527 1527 1527 1527 1526 1526 1525 1525 1524 1524 1523
1530 1531 1531 1531 1531 1531 1531 1531 1531 1531 1531 1532 1532 1532 1532 1532 1533 1533 1533 1532 1532 1532 1532 1531 1531 1531 1531 1530 1530 1530 1529 1529 1528 1528 1528 1528 1527 1527 1526 1526 1525 1525 1524
1530 1531 1531 1532 1532 1532 1532 1532 1532 1533 1533 1533 1533 1533 1534 1534 1534 1534 1534 1534 1533 1533 1533 1533 1532 1532 1532 1532 1532 1531 1531 1530 1529 1529 1529 1528 1528 1527 1527 1526 1526 1525 1524
1530 1531 1532 1532 1533 1532 1533 1533 1533 1533 1533 1534 1534 1534 1535 1535 1535 1535 1535 1535 1535 1534 1534 1534 1534 1534 1533 1533 1533 1532 1532 1531 1531 1530 1529 1529 1528 1528 1527 1526 1526 1525 1525
1530 1531 1532 1533 1533 1533 1533 1533 1534 1534 1534 1534 1534 1535 1535 1535 1535 1536 1536 1536 1535 1535 1535 1535 1534 1534 1534 1534 1534 1533 1533 1532 1531 1530 1530 1529 1529 1528 1527 1527 1526 1525 1525
1530 1531 1532 1532 1533 1533 1533 1533 1534 1534 1535 1535 1535 1535 1535 1536 1536 1536 1536 1536 1536 1536 1536 1535 1535 1535 1535 1534 1534 1534 1533 1533 1532 1531 1531 1530 1529 1529 1528 1527 1526 1525 1524
1529 1531 1531 1532 1533 1533 1533 1533 1534 1534 1535 1535 1535 1535 1535 1536 1536 1536 1536 1536 1536 1536 1536 1536 1535 1535 1535 1535 1535 1535 1534 1534 1533 1532 1531 1530 1530 1529 1528 1527 1526 1525 1524
1529 1530 1531 1532 1532 1532 1533 1533 1534 1534 1534 1535 1535 1535 1536 1536 1536 1536 1536 1536 1536 1536 1536 1536 1536 1536 1536 1535 1535 1535 1534 1534 1534 1533 1532 1531 1530 1530 1529 1528 1526 1525 1523
1528 1529 1530 1531 1532 1532 1533 1533 1534 1534 1534 1535 1535 1535 1536 1536 1536 1536 1536 1537 1536 1536 1536 1536 1536 1536 1536 1535 1535 1535 1534 1534 1534 1534 1533 1532 1532 1531 1529 1528 1526 1524 1521
1528 1529 1529 1530 1531 1532 1532 1533 1533 1534 1534 1535 1535 1535 1535 1536 1536 1536 1536 1536 1536 1536 1536 1536 1536 1536 1536 1536 1535 1535 1534 1534 1534 1533 1533 1533 1532 1531 1530 1528 1527 1524 1521
1527 1528 1528 1529 1530 1531 1531 1532 1532 1533 1534 1535 1535 1535 1535 1535 1535 1536 1536 1536 1536 1536 1536 1536 1536 1536 1536 1536 1535 1534 1534 1534 1534 1534 1534 1533 1533 1532 1530 1529 1528 1526 1524
1526 1527 1527 1528 1529 1530 1530 1531 1532 1533 1534 1534 1534 1535 1535 1535 1535 1535 1535 1535 1536 1536 1535 1535 1535 1535 1535 1535 1535 1535 1535 1535 1534 1534 1533 1533 1533 1532 1531 1530 1529 1527 1526
1524 1525 1526 1527 1528 1529 1529 1530 1531 1532 1533 1533 1533 1534 1534 1534 1535 1535 1535 1535 1535 1535 1535 1535 1535 1535 1535 1535 1536 1536 1535 1535 1534 1534 1533 1533 1532 1532 1531 1531 1530 1529 1527
1522 1524 1525 1525 1526 1527 1528 1529 1530 1530 1531 1531 1532 1533 1533 1534 1534 1534 1534 1534 1535 1535 1535 1534 1534 1534 1534 1534 1535 1535 1536 1535 1535 1534 1534 1533 1532 1531 1531 1530 1529 1529 1528
1520 1522 1523 1524 1525 1526 1526 1527 1528 1529 1529 1530 1531 1531 1532 1532 1533 1533 1533 1534 1534 1534 1534 1534 1533 1533 1534 1534 1534 1534 1534 1534 1534 1534 1532 1532 1531 1531 1530 1529 1529 1528 1527
1519 1520 1521 1522 1523 1524 1525 1526 1527 1527 1528 1529 1529 1530 1531 1531 1532 1532 1532 1532 1532 1533 1533 1532 1532 1532 1533 1533 1533 1533 1533 1533 1533 1533 1532 1531 1530 1530 1529 1528 1528 1527 1527